Flag for United Kingdom Weather past 2 weeks in Kingston upon Hull, England, United Kingdom

Now
68 °F

Scattered clouds.


Feels Like: 68 °F
Forecast: 60 / 73 °F
Wind: 15 mph from Northeast

Location: Humberside

Current Time: Jul 23, 2014 at 11:43:05 AM

Latest Report: Jul 23, 2014 at 11:20 AM


Visibility: N/A

Pressure: 30.24 "Hg

Humidity: 78%

Dew point: 61 °F

Location of Kingston upon HullLocation

Historic Weather in Kingston upon Hull — Graph

°F

Kingston upon Hull temperature yesterday

Maximum temperature yesterday: 73 °F (at 12:50 PM)
Minimum temperature yesterday: 57 °F (at 2:50 AM)
Average temperature yesterday: 66 °F

Past Weeks' High & Low Weather Summary

 TemperatureHumidityPressure
High77 °F (Jul 16, 1:20 PM)100% (Jul 10, 2:50 PM)30.27 "Hg (Jul 10, 2:50 PM)
Low54 °F (Jul 14, 5:20 AM)44% (Jul 14, 2:20 PM)29.68 "Hg (Jul 13, 11:20 AM)
Average65 °F81%30.00 "Hg
* Reported Jul 8 9:20 AM — Jul 23 9:50 AM, Kingston upon Hull, Weather by CustomWeather, © 2014

Note: Actual official high and low records may vary slightly from our data, if they occured in-between our weather recording intervals... More about our weather records

Advertising

Kingston upon Hull weather history for previous 24 hours

 ConditionsComfort  
Time TempWeatherWind HumidityBarometerVisibility
9:50 AM
Jul 23
66 °FScattered clouds.15 mph83%30.24 "HgN/A
8:50 AM64 °FScattered clouds.12 mph88%30.24 "Hg5 mi
6:50 AM61 °FFog.9 mph94%30.27 "Hg3 mi
6:20 AM61 °FFog.8 mph94%30.27 "Hg2 mi
5:50 AM61 °FFog.8 mph94%30.27 "Hg2 mi
5:20 AM61 °FLow clouds.7 mph94%30.27 "Hg4 mi
4:50 AM61 °FFog.9 mph94%30.27 "Hg2 mi
4:20 AM61 °FFog.8 mph94%30.27 "Hg2 mi
3:50 AM61 °FFog.7 mph94%30.27 "Hg3 mi
3:20 AM61 °FFog.7 mph94%30.27 "Hg2 mi
2:50 AM61 °FLow clouds.7 mph94%30.27 "Hg4 mi
2:20 AM61 °FFog.7 mph94%30.27 "Hg2 mi
1:50 AM61 °FFog.7 mph100%30.27 "Hg2 mi
1:20 AM61 °FFog.7 mph100%30.27 "Hg1 mi
12:50 AM61 °FFog.7 mph100%30.27 "Hg2 mi
5:50 PM
Jul 22
70 °FPassing clouds.13 mph78%30.24 "HgN/A
5:20 PM70 °FPassing clouds.12 mph73%30.24 "HgN/A
4:50 PM70 °FPassing clouds.12 mph73%30.27 "HgN/A
4:20 PM70 °FPassing clouds.14 mph73%30.27 "HgN/A
3:50 PM70 °FPassing clouds.12 mph73%30.27 "HgN/A
3:20 PM72 °FPassing clouds.15 mph69%30.24 "HgN/A
2:50 PM73 °FPassing clouds.14 mph65%30.24 "HgN/A
2:20 PM73 °FPassing clouds.12 mph65%30.27 "HgN/A
1:50 PM72 °FPassing clouds.12 mph69%30.27 "HgN/A
1:20 PM73 °FPassing clouds.13 mph65%30.27 "HgN/A
12:50 PM73 °FPassing clouds.12 mph65%30.27 "HgN/A
12:20 PM72 °FPassing clouds.12 mph69%30.27 "HgN/A
11:50 AM72 °FPassing clouds.10 mph69%30.27 "HgN/A
11:20 AM70 °FPassing clouds.9 mph73%30.24 "HgN/A
Weather by CustomWeather, © 2014

See weather overviewHow to use our weather pages